Location: ?????
(31.8092°N, 35.2590°E)
Time: 15:39:41
(UTC+00:00)

Cosmos 1980 - Pass Details

Date: 20 June 2021
Orbit: 839 x 847 km, 71.0° (Epoch: 03 August)

Event Time Altitude Azimuth Distance (km) Brightness Sun altitude
Exits shadow 20:09:21 67° 326° (NW) 912 3.9 -30.6°
Drops below altitude 10° 20:14:33 10° 15° (NNE) 2,472 6.7 -31.0°
Sets 20:17:02 0° 18° (NNE) 3,411 7.5 -31.2°
